Regional Weather Roundup
Issued by NWS Huntsville, AL

Home | Current Version | Previous Version | Text Only | Print | Product List | Glossary On
Versions: 1 2 3 4 5 6 7 8 9 10 11 12 13 14 15 16 17 18 19 20 21 22 23 24 25 26 27 28 29 30 31 32 33 34 35 36 37 38 39 40 41 42 43 44 45 46 47 48 49 50
000
ASUS44 KHUN 230410
RWRHUN

WEATHER ROUNDUP FOR THE TENNESSEE VALLEY
NATIONAL WEATHER SERVICE HUNTSVILLE AL
1000 PM CST MON DEC 22 2014

ALZ001>004-230500-
NORTHWEST ALABAMA

CITY           SKY/WX    TMP DP  RH WIND       PRES   REMARKS
COURTLAND HCN    N/A     52 N/A N/A SE8         N/A
RUSSELLVILLE     N/A     54 N/A N/A MISG        N/A
SHOALS AIRPORT CLOUDY    54  52  93 SE7       29.75S
SHOALS TVA RES   N/A     54 N/A N/A MISG        N/A
$$

ALZ005>007-016-230500-
NORTH CENTRAL ALABAMA

CITY           SKY/WX    TMP DP  RH WIND       PRES   REMARKS
CULLMAN AG STN   N/A     50 N/A N/A SE5         N/A
DECATUR AP     CLOUDY    51  49  92 SE9       29.79R
HUNTSVILLE AP  CLOUDY    53  49  86 S10       29.78S
HUN NWS/UAH      N/A     50  48  90 SE10        N/A
MERIDIANVILLE  CLOUDY    48  45  87 SE7       29.79S
REDSTONE ARSN  CLOUDY    50  48  93 S10       29.78R
VINEMONT AP    CLOUDY    49  49  97 SE7       29.80S
$$

ALZ008>010-230500-
NORTHEAST ALABAMA

CITY           SKY/WX    TMP DP  RH WIND       PRES   REMARKS
ALBERTVILLE    CLOUDY    46  46 100 SE10G16   29.82S
FORT PAYNE     CLOUDY    45  41  87 E3        29.85R
SCOTTSBORO AP  CLOUDY    50  48  93 SW3       29.84R
VALLEY HEAD      N/A     45 N/A N/A MISG        N/A
$$

TNZ076-096-097-230500-
SOUTHEASTERN MIDDLE TENNESSEE

CITY           SKY/WX    TMP DP  RH WIND       PRES   REMARKS
TULLAHOMA      CLOUDY    46  46 100 SE8       29.78S
WINCHESTER     CLOUDY    48  46  93 S14       29.80R
$$

...SURROUNDING SITES...

CITY           SKY/WX    TMP DP  RH WIND       PRES   REMARKS
ATLANTA        FOG       43  42  97 E13       29.92S VSB 1
ANNISTON       CLOUDY    49  47  93 NE10      29.86S
BIRMINGHAM     CLOUDY    54  51  90 VRB5      29.82S
CHATTANOOGA    CLOUDY    47  45  93 S9        29.87R
CORINTH        CLOUDY    57  55  94 S9        29.68S FOG
DALTON         CLOUDY    45  45 100 SW5       29.88R
GADSDEN        CLOUDY    48  45  87 E7        29.86S
GOLDEN TRNGL   CLOUDY    57  55  94 SE12      29.70F
HALEYVILLE     LGT RAIN  52  52 100 S9        29.77S VSB 1/2
JACKSON TN     LGT RAIN  56  54  93 S6        29.66R
LEWISBURG      CLOUDY    51  48  89 S10       29.75R
MEMPHIS        CLOUDY    56  54  93 S3        29.66R
MURFREESBORO   CLOUDY    52  48  86 S10       29.75R
NASHVILLE      CLOUDY    52  49  89 S14       29.74R
OXFORD MS      CLOUDY    55  55 100 S3        29.69S FOG
ROME           HVY RAIN  45  43  93 S5        29.90R FOG
SAVANNAH       CLOUDY    55  55 100 S12       29.70R
TUPELO         CLOUDY    58  56  93 SW7       29.70S FOG
TUSCALOOSA     CLOUDY    57  54  89 SE7       29.77S
$$

...GULF COAST WEATHER...

CITY           SKY/WX    TMP DP  RH WIND       PRES   REMARKS
GULFPORT       CLOUDY    65  64  97 S6        29.76S FOG
PASCAGOULA     PTCLDY    67  65  93 S7        29.77S
MOBILE         MOCLDY    65  65 100 S7        29.79R FOG
GULF SHORES    PTCLDY    68  67  98 S6        29.80R FOG
PENSACOLA      MOCLDY    64  64 100 S6        29.80S FOG
DESTIN         FOG       63  62  97 E3        29.83  VSB 3/4
PANAMA CITY    FOG       66 N/A N/A SE5       29.86S VSB 1
APPALACHICOLA  CLOUDY    69  65  86 S8        29.86F
$$




USA.gov is the U.S. government's official web portal to all federal, state and local government web resources and services.